TimePST,TemperatureF,Dew PointF,Humidity,Sea Level PressureIn,VisibilityMPH,Wind Direction,Wind SpeedMPH,Gust SpeedMPH,PrecipitationIn,Events,Conditions,WindDirDegrees,DateUTC
12:52 AM,30.9,19.9,64,29.94,-9999.0,NE,8.1,-,N/A,,Unknown,50,2012-12-12 08:52:00
1:52 AM,30.9,19.0,61,29.93,-9999.0,ENE,6.9,-,N/A,,Unknown,60,2012-12-12 09:52:00
2:52 AM,30.0,19.0,64,29.92,-9999.0,NE,3.5,-,N/A,,Unknown,40,2012-12-12 10:52:00
3:52 AM,30.9,19.0,61,29.91,-9999.0,ENE,6.9,-,N/A,,Unknown,60,2012-12-12 11:52:00
4:52 AM,30.9,19.0,61,29.91,-9999.0,ENE,6.9,-,N/A,,Unknown,60,2012-12-12 12:52:00
5:52 AM,28.0,18.0,66,29.94,-9999.0,NE,8.1,-,N/A,,Unknown,50,2012-12-12 13:52:00
6:52 AM,30.9,19.0,61,29.95,-9999.0,ENE,6.9,-,N/A,,Unknown,60,2012-12-12 14:52:00
7:52 AM,37.0,21.0,52,29.94,-9999.0,Calm,Calm,-,N/A,,Unknown,0,2012-12-12 15:52:00
8:52 AM,53.1,23.0,31,29.92,-9999.0,Calm,Calm,-,N/A,,Unknown,0,2012-12-12 16:52:00
9:52 AM,59.0,21.0,23,29.92,-9999.0,Calm,Calm,-,N/A,,Unknown,0,2012-12-12 17:52:00
10:52 AM,63.0,19.0,18,29.89,-9999.0,South,10.4,19.6,N/A,,Unknown,190,2012-12-12 18:52:00
11:52 AM,64.9,19.0,17,29.86,-9999.0,SSW,13.8,-,N/A,,Unknown,210,2012-12-12 19:52:00
12:52 PM,66.0,19.9,17,29.83,-9999.0,SW,13.8,-,N/A,,Unknown,230,2012-12-12 20:52:00
1:52 PM,64.9,23.0,20,29.81,-9999.0,SW,12.7,23.0,N/A,,Unknown,230,2012-12-12 21:52:00
2:52 PM,61.0,37.9,42,29.83,-9999.0,SW,16.1,24.2,N/A,,Unknown,230,2012-12-12 22:52:00
3:52 PM,60.1,27.0,28,29.83,-9999.0,SW,16.1,-,N/A,,Unknown,220,2012-12-12 23:52:00
4:52 PM,51.1,42.1,71,29.85,-9999.0,SW,8.1,-,N/A,,Unknown,220,2012-12-13 00:52:00
5:52 PM,50.0,43.0,77,29.86,-9999.0,SW,4.6,-,N/A,,Unknown,230,2012-12-13 01:52:00
6:52 PM,50.0,44.1,80,29.85,-9999.0,SSW,8.1,-,N/A,,Unknown,210,2012-12-13 02:52:00
7:52 PM,48.9,44.1,83,29.86,-9999.0,SW,6.9,-,N/A,,Unknown,230,2012-12-13 03:52:00
8:52 PM,50.0,42.1,74,29.84,-9999.0,South,10.4,-,N/A,,Unknown,190,2012-12-13 04:52:00
9:52 PM,50.0,43.0,77,29.83,-9999.0,SSW,9.2,-,N/A,,Unknown,200,2012-12-13 05:52:00
10:52 PM,51.1,39.9,66,29.82,-9999.0,South,11.5,-,N/A,,Unknown,190,2012-12-13 06:52:00
11:52 PM,50.0,41.0,71,29.80,-9999.0,SSW,11.5,-,N/A,,Unknown,200,2012-12-13 07:52:00